[[{"header":{"parameterUnit":"m.s-1","parameterCategory":1,"la1":30.2991,"la2":30.254,"lo1":-89.0895,"lo2":-89.0444,"dy":0.0017,"dx":0.0017,"nx":28,"ny":28,"refTime":"2025-05-17T21:00:00:Z","depth":0,"parameterNumber":2,"parameterNumberName":"U-component_of_WINDS"},"data":[0,0,0,0,0,0,0,0,0,0,0,0,0,0,0,0,0,0,0,0,0,0,0,0,0,0,0,0,0,0,0,0,0,0,0,0,0,0,0,0,0,0,0,0,0,0,0,0,0,0,0,0,0,0,0,0,0,0,1.4655,1.4656,0,1.4737,1.4738,1.4739,1.4776,1.4776,1.4776,1.4776,1.4862,1.4864,1.4866,0,0,0,0,0,0,0,0,0,0,0,0,0,1.4533,1.4535,1.4655,1.4656,1.4657,1.4737,1.4738,1.4739,1.4776,1.4776,1.4776,1.4776,1.4861,1.4864,1.4867,0,0,0,0,0,0,0,0,0,0,0,0,0,1.4597,1.4535,1.4655,1.4685,1.4688,1.4736,1.4738,1.4739,1.4776,1.4776,1.4776,1.4776,1.486,1.4864,1.4867,1.4892,0,0,1.4878,1.4879,0,0,0,0,0,0,0,0,1.4593,1.4602,1.4679,1.4683,1.4687,1.4746,1.4726,1.479,1.4776,1.4743,1.4776,1.4776,1.4824,1.483,1.4846,1.4896,1.4899,1.4878,1.488,1.4882,1.4883,0,0,0,0,0,0,0,1.4589,1.4598,1.4687,1.468,1.4685,1.4695,1.4704,1.4739,1.4783,1.4746,1.4749,1.4758,1.4826,1.4842,1.4848,1.4901,1.4878,1.4881,1.4883,1.4885,1.4976,1.4976,0,0,0,0,0,0,1.4579,1.4594,1.4685,1.469,1.4639,1.4697,1.4708,1.4727,1.4783,1.4791,1.4758,1.4759,1.4836,1.4844,1.4851,1.4884,1.4882,1.4885,1.4887,1.4975,1.4976,1.4976,0,0,0,0,0,0,1.4576,1.4587,1.4681,1.4643,1.4656,1.47,1.4721,1.4729,1.4746,1.4792,1.48,1.4766,1.4836,1.4846,1.4881,1.4888,1.4887,1.489,1.4975,1.4975,1.4976,1.495,0,0,0,0,0,0,1.4573,1.4586,1.4595,1.4643,1.4658,1.4709,1.4722,1.4731,1.4751,1.4754,1.4802,1.481,1.4837,1.4876,1.4885,1.4893,1.4893,1.4975,1.4975,1.4976,1.495,1.4949,1.4948,0,0,0,0,0,1.4568,1.4584,1.4595,1.4606,1.467,1.4709,1.4718,1.4748,1.4752,1.4762,1.4791,1.4809,1.4885,1.4879,1.489,1.4898,1.4974,1.4975,1.4976,1.4951,1.4949,1.4948,0,0,0,0,0,0,1.4537,1.4591,1.4604,1.4636,1.4668,1.4716,1.4729,1.4746,1.4778,1.4779,1.4816,1.4826,1.4858,1.4882,1.4874,1.4926,1.4932,1.4934,1.4909,1.4908,1.4907,1.4901,1.4896,0,0,0,0,0,1.4533,1.456,1.4607,1.4631,1.4646,1.4685,1.4703,1.4724,1.4758,1.4772,1.4805,1.4838,1.487,1.489,1.4922,1.4954,1.4965,1.4965,1.4964,1.4963,1.4965,1.4985,1.4985,1.4978,1.4978,1.4978,0,0,1.4527,1.456,1.4575,1.4625,1.4652,1.468,1.4696,1.4724,1.4746,1.4777,1.4812,1.4837,1.4877,1.491,1.4927,1.4931,1.497,1.4964,1.4963,1.4966,1.4985,1.4986,1.4986,1.4978,1.4978,1.4978,0,0,1.4529,1.4556,1.458,1.4607,1.4647,1.4673,1.4679,1.4725,1.4742,1.4778,1.4802,1.4828,1.4882,1.491,1.4931,1.4945,1.4962,1.4954,1.4949,1.4968,1.4968,1.4969,1.4974,1.4976,1.4956,1.4956,1.4956,0,1.4516,1.4558,1.459,1.4617,1.4639,1.4668,1.4692,1.4717,1.4766,1.4781,1.4785,1.4854,1.4883,1.4923,1.4927,1.4943,1.4951,1.4949,1.4965,1.4966,1.4968,1.4973,1.4975,1.4955,1.4955,1.4955,1.4955,0,1.454,1.457,1.4583,1.463,1.4653,1.4679,1.4715,1.4735,1.4754,1.4779,1.4816,1.4852,1.4892,1.4903,1.4921,1.4947,1.4948,1.4958,1.4965,1.4966,1.4972,1.4975,1.4953,1.4953,1.4954,1.4954,0,0,1.4525,1.4589,1.4593,1.4615,1.4663,1.4686,1.4713,1.4752,1.4769,1.4802,1.4827,1.4872,1.4882,1.4906,1.4928,1.4944,1.4953,1.4952,1.4954,1.4951,1.4984,1.4976,1.4978,1.4964,1.4965,1.4965,1.4981,0,1.4534,1.4584,1.4613,1.4651,1.4679,1.4708,1.4732,1.4764,1.4789,1.4816,1.4844,1.4876,1.4886,1.4901,1.4918,1.4948,1.496,1.4947,1.4988,1.499,1.4978,1.4981,1.4973,1.4985,1.4983,1.4983,1.4984,0,1.4551,1.4584,1.4624,1.467,1.4682,1.4703,1.4741,1.4767,1.4805,1.4822,1.4849,1.4871,1.4902,1.4906,1.495,1.4941,1.4959,1.4977,1.4978,1.4983,1.4987,1.4987,1.499,1.4992,1.4988,1.4987,1.4987,0,1.4536,1.459,1.4622,1.464,1.4693,1.4707,1.473,1.4767,1.4789,1.4822,1.4837,1.4874,1.4894,1.4922,1.4954,1.4954,1.4995,1.5002,1.5011,1.501,1.5018,1.5017,1.5025,1.503,1.5029,1.5029,1.5029,0,1.4544,1.4568,1.4616,1.4635,1.4663,1.4697,1.4725,1.475,1.4783,1.4808,1.4835,1.4859,1.4899,1.4928,1.4953,1.4986,1.4995,1.501,1.5017,1.5008,1.5006,1.5021,1.5021,1.503,1.503,1.503,1.503,0,1.4532,1.4565,1.4601,1.4649,1.4661,1.468,1.4721,1.4742,1.4768,1.48,1.4809,1.4851,1.4886,1.4921,1.4968,1.4985,1.5018,1.5026,1.5005,1.5009,1.5016,1.5015,1.5034,1.5038,1.5039,1.5039,1.5039,0,1.4534,1.4554,1.4603,1.4622,1.4644,1.4674,1.4696,1.4731,1.4753,1.4798,1.4813,1.485,1.4881,1.4937,1.4972,1.5008,1.5018,1.5022,1.5024,1.5015,1.5019,1.5017,1.502,1.5021,1.5021,1.5021,1.5021,0,1.4536,1.4551,1.4582,1.4619,1.4644,1.4675,1.4707,1.4721,1.4761,1.4785,1.4821,1.4846,1.4894,1.4931,1.4972,1.4996,1.5016,1.502,1.5024,1.5015,1.5002,1.501,1.5003,1.5019,1.5019,1.502,1.502,1.502,1.4532,1.455,1.4588,1.4622,1.4649,1.4678,1.47,1.4729,1.476,1.4802,1.482,1.4857,1.4895,1.4952,1.4976,1.5006,1.501,1.5016,1.5018,1.5019,1.5017,1.4997,1.5013,1.5013,1.5013,1.5013,1.5013,0,1.4535,1.4561,1.4591,1.4635,1.4661,1.4677,1.4713,1.4734,1.4766,1.4799,1.483,1.4872,1.4908,1.4946,1.4984,1.5001,1.501,1.501,1.5009,1.5014,1.501,1.5003,1.5001,1.5001,1.5001,1.5001,1.5001,1.5001,1.4539,1.4572,1.4592,1.4639,1.4665,1.4701,1.472,1.4748,1.4775,1.482,1.485,1.4874,1.491,1.4951,1.4985,1.4996,1.5009,1.5005,1.5018,1.5014,1.5015,1.5015,1.5009,1.5008,1.5008,1.502,1.502,1.502]},{"header":{"parameterUnit":"m.s-1","parameterCategory":1,"la1":30.2991,"la2":30.254,"lo1":-89.0895,"lo2":-89.0444,"dy":0.0017,"dx":0.0017,"nx":28,"ny":28,"refTime":"2025-05-17T21:00:00:Z","depth":0,"parameterNumber":3,"parameterNumberName":"V-component_of_WINDS"},"data":[0,0,0,0,0,0,0,0,0,0,0,0,0,0,0,0,0,0,0,0,0,0,0,0,0,0,0,0,0,0,0,0,0,0,0,0,0,0,0,0,0,0,0,0,0,0,0,0,0,0,0,0,0,0,0,0,0,0,3.6125,3.6126,0,3.622,3.6221,3.6222,3.6271,3.6271,3.6271,3.6272,3.6361,3.6364,3.6366,0,0,0,0,0,0,0,0,0,0,0,0,0,3.598,3.5982,3.6125,3.6126,3.6127,3.6219,3.6221,3.6222,3.6271,3.6271,3.6272,3.6272,3.6361,3.6363,3.6366,0,0,0,0,0,0,0,0,0,0,0,0,0,3.6055,3.5983,3.6124,3.6163,3.6167,3.6219,3.6221,3.6222,3.6271,3.6271,3.6272,3.6272,3.636,3.6363,3.6367,3.6385,0,0,3.6377,3.6379,0,0,0,0,0,0,0,0,3.6051,3.6061,3.6156,3.616,3.6165,3.6234,3.6203,3.6277,3.6271,3.6232,3.6272,3.6272,3.6318,3.6325,3.6342,3.6389,3.6393,3.6377,3.6379,3.6381,3.6382,0,0,0,0,0,0,0,3.6046,3.6057,3.6162,3.6157,3.6163,3.6173,3.6184,3.6217,3.6273,3.6235,3.6239,3.625,3.6321,3.6339,3.6345,3.6394,3.6377,3.638,3.6382,3.6384,3.6462,3.6462,0,0,0,0,0,0,3.6035,3.6052,3.6159,3.6165,3.6108,3.6176,3.6188,3.6212,3.6273,3.6282,3.625,3.6252,3.6333,3.6341,3.6348,3.6375,3.6381,3.6384,3.6386,3.6462,3.6462,3.6462,0,0,0,0,0,0,3.6032,3.6044,3.6155,3.611,3.6125,3.6178,3.6204,3.6213,3.6232,3.6284,3.6293,3.6258,3.6333,3.6343,3.6376,3.6379,3.6386,3.6389,3.6462,3.6462,3.6462,3.6428,0,0,0,0,0,0,3.6028,3.6043,3.6052,3.611,3.6127,3.6183,3.6204,3.6215,3.6238,3.6242,3.6294,3.6303,3.6334,3.6371,3.638,3.6384,3.6392,3.6462,3.6462,3.6462,3.6429,3.6426,3.6424,0,0,0,0,0,3.6022,3.6036,3.6052,3.6065,3.6139,3.6183,3.6193,3.6231,3.6238,3.6247,3.6281,3.6301,3.6377,3.6374,3.6384,3.6389,3.6462,3.6462,3.6462,3.643,3.6427,3.6425,0,0,0,0,0,0,3.5974,3.6045,3.6063,3.6096,3.6134,3.6192,3.6204,3.6226,3.626,3.6262,3.6305,3.6317,3.6345,3.637,3.6366,3.6411,3.6422,3.6424,3.6393,3.6391,3.6389,3.6382,3.6394,0,0,0,0,0,3.5968,3.6,3.6059,3.6083,3.6101,3.6149,3.6169,3.6196,3.6235,3.625,3.6286,3.6322,3.6354,3.6374,3.6406,3.6433,3.6445,3.6441,3.6439,3.6437,3.6438,3.6455,3.6454,3.6462,3.6462,3.6462,0,0,3.5955,3.5997,3.6014,3.6074,3.6106,3.6137,3.6162,3.6192,3.6215,3.6254,3.6289,3.6316,3.6359,3.6389,3.6404,3.641,3.6439,3.6437,3.6435,3.6437,3.6455,3.6454,3.6453,3.6462,3.6462,3.6462,0,0,3.5946,3.5982,3.6006,3.6039,3.6088,3.6121,3.6126,3.6181,3.6202,3.6238,3.6268,3.6294,3.6348,3.6378,3.64,3.6405,3.6425,3.6413,3.6402,3.6418,3.6417,3.6417,3.6419,3.6419,3.6414,3.6414,3.6414,0,3.5922,3.5972,3.6015,3.6046,3.6071,3.6111,3.6135,3.6164,3.622,3.6236,3.6243,3.6313,3.6344,3.6382,3.6384,3.64,3.6407,3.6408,3.6414,3.6414,3.6415,3.6417,3.6418,3.6413,3.6413,3.6413,3.6413,0,3.5941,3.5975,3.5988,3.6045,3.6072,3.6099,3.6145,3.6166,3.619,3.6221,3.6257,3.6296,3.6338,3.6348,3.6371,3.639,3.6393,3.6406,3.6418,3.6412,3.6415,3.6416,3.641,3.6411,3.6411,3.6412,0,0,3.5903,3.5986,3.599,3.6017,3.6076,3.6102,3.613,3.6174,3.6191,3.6229,3.6253,3.6299,3.6313,3.6338,3.6364,3.6378,3.6379,3.639,3.6392,3.6387,3.6403,3.6393,3.6393,3.6394,3.6394,3.6394,3.64,0,3.5904,3.596,3.6,3.604,3.6071,3.611,3.6135,3.6173,3.6202,3.6232,3.6264,3.6296,3.6312,3.6327,3.6343,3.6376,3.6383,3.6376,3.6415,3.6416,3.6404,3.6395,3.6384,3.6387,3.6401,3.6402,3.6402,0,3.5911,3.5951,3.5995,3.6052,3.6066,3.6088,3.6132,3.616,3.6203,3.6224,3.6253,3.628,3.6311,3.632,3.6362,3.6356,3.6374,3.6393,3.6394,3.6399,3.6409,3.64,3.6389,3.639,3.6404,3.6404,3.6404,0,3.588,3.5944,3.598,3.6001,3.6068,3.6083,3.6111,3.6154,3.6178,3.6215,3.6231,3.627,3.6292,3.632,3.6357,3.6361,3.6395,3.6408,3.6412,3.6412,3.6418,3.6417,3.641,3.6429,3.6429,3.6429,3.6429,0,3.5876,3.5901,3.5967,3.5988,3.6018,3.6063,3.609,3.6121,3.616,3.6187,3.6221,3.6245,3.6293,3.6322,3.6351,3.6381,3.639,3.6407,3.6414,3.6404,3.6402,3.6417,3.6417,3.6429,3.6429,3.6429,3.6429,0,3.5846,3.5892,3.5933,3.5994,3.601,3.6028,3.608,3.6101,3.6134,3.6167,3.6178,3.6227,3.6264,3.6304,3.6353,3.6372,3.6401,3.6411,3.6387,3.6392,3.6395,3.6394,3.6397,3.64,3.6416,3.6416,3.6416,0,3.5841,3.5862,3.5927,3.5949,3.5977,3.6011,3.6037,3.6082,3.6107,3.6159,3.6174,3.6214,3.6248,3.6304,3.6343,3.6381,3.6393,3.6391,3.6398,3.6388,3.6393,3.6392,3.6394,3.6389,3.6388,3.6388,3.6388,0,3.5827,3.5849,3.5886,3.5931,3.5962,3.5999,3.6037,3.6052,3.6105,3.6131,3.6171,3.6197,3.6249,3.6288,3.6331,3.6357,3.6381,3.6386,3.6389,3.6379,3.6364,3.6373,3.6382,3.6385,3.6385,3.6386,3.6386,3.6386,3.5809,3.583,3.588,3.592,3.5955,3.599,3.6014,3.6051,3.6086,3.6134,3.6157,3.6197,3.6239,3.63,3.6326,3.6356,3.6364,3.6368,3.6369,3.637,3.6367,3.636,3.6364,3.6364,3.6364,3.6364,3.6365,0,3.5797,3.5832,3.5869,3.5923,3.5955,3.5978,3.6022,3.6046,3.6081,3.6121,3.6155,3.62,3.6238,3.6282,3.6322,3.6338,3.635,3.6347,3.6346,3.6352,3.6358,3.6352,3.6337,3.6337,3.6337,3.6337,3.6337,3.6337,3.5795,3.5832,3.586,3.5915,3.5948,3.599,3.6013,3.6045,3.6078,3.6128,3.6161,3.619,3.6231,3.6275,3.6311,3.6323,3.6336,3.633,3.6344,3.6349,3.6351,3.6354,3.6348,3.6332,3.6332,3.6336,3.6336,3.6336]}]]